Location: Franzen
(48.6167°N, 15.3833°E)
Time: 02:44:04
(UTC+00:00)

Transit 2A - Pass Details

Date: 08 August 2021
Orbit: 594 x 964 km, 66.7° (Epoch: 27 September)

Event Time Altitude Azimuth Distance (km) Brightness Sun altitude
Rises 13:22:14 0° 314° (NW) 3,308 9.4 46.9°
Reaches altitude 10° 13:25:02 10° 300° (WNW) 2,438 9.0 46.5°
Maximum altitude 13:29:21 23° 251° (WSW) 1,776 9.3 45.9°
Drops below altitude 10° 13:33:55 10° 201° (SSW) 2,596 9.5 45.3°
Sets 13:37:01 0° 188° (S) 3,577 9.9 44.9°
